This is the latest recevied weather packets stored in our database for station/object N9XRG. If no packets are shown the sender has not sent any weather packets the latest 10 day(s).
| Time | Temp. | Humidity | Pressure | Rain* | Wind** | Luminosity | Snow |
|---|---|---|---|---|---|---|---|
| 1777493560 | 15° C | 64% | 1011 hPa | 0 mm | - | 195 W/m² | - |
| 1777493257 | 15° C | 63% | 1010.9 hPa | 0 mm | - | 229 W/m² | - |
| 1777492953 | 15° C | 64% | 1010.9 hPa | 0 mm | - | 241 W/m² | - |
| 1777492651 | 15° C | 64% | 1010.8 hPa | 0 mm | - | 224 W/m² | - |
| 1777492350 | 15° C | 62% | 1010.7 hPa | 0 mm | - | 202 W/m² | - |
| 1777492047 | 15° C | 65% | 1010.8 hPa | 0 mm | - | 160 W/m² | - |
| 1777491744 | 15° C | 71% | 1010.8 hPa | 0 mm | - | 180 W/m² | - |
| 1777491441 | 15° C | 68% | 1010.9 hPa | 0 mm | - | 143 W/m² | - |
| 1777491139 | 15° C | 68% | 1010.8 hPa | 0 mm | - | 179 W/m² | - |
| 1777490834 | 15° C | 67% | 1010.7 hPa | 0 mm | - | 129 W/m² | - |
| 1777490531 | 15° C | 66% | 1010.8 hPa | 0 mm | - | 115 W/m² | - |
| 1777490227 | 15.56° C | 69% | 1010.6 hPa | 0 mm | - | 124 W/m² | - |
| 1777489925 | 16.11° C | 70% | 1010.6 hPa | 0 mm | - | 221 W/m² | - |
| 1777489622 | 16.11° C | 75% | 1010.5 hPa | 0 mm | - | 370 W/m² | - |
| 1777489318 | 15.56° C | 75% | 1010.5 hPa | 0 mm | - | 429 W/m² | - |
| 1777489015 | 15.56° C | 77% | 1010.4 hPa | 0 mm | - | 252 W/m² | - |
| 1777488712 | 15.56° C | 77% | 1010.4 hPa | 0 mm | - | 264 W/m² | - |
| 1777488410 | 15.56° C | 77% | 1010.6 hPa | 0 mm | - | 356 W/m² | - |
| 1777488108 | 15.56° C | 81% | 1010.3 hPa | 0 mm | - | 409 W/m² | - |
| 1777487806 | 15° C | 80% | 1010.3 hPa | 0 mm | - | 429 W/m² | - |
| 1777487504 | 15° C | 82% | 1010.4 hPa | 0 mm | - | 542 W/m² | - |
| 1777487201 | 13.89° C | 86% | 1010.5 hPa | 0 mm | - | 492 W/m² | - |
| 1777486896 | 13.89° C | 88% | 1010.5 hPa | 0 mm | - | 362 W/m² | - |
| 1777486594 | 13.33° C | 87% | 1010.7 hPa | 0 mm | - | 264 W/m² | - |
| 1777486291 | 12.78° C | 89% | 1010.8 hPa | 0 mm | - | 203 W/m² | - |
* Rain latest hour (hover to see other rain measurements)
** Current wind speed in m/s (hover to see current wind gust speed)